QPF
0.00 0.00 0.00 0.00 0.00 0.00 0.00 0.00 0.00 0.01 0.02 0.01 0.00 0.00 0.00 0.00 0.00 0.00 0.00 0.00 0.00 0.00 0.00 0.00 0.00 0.00 0.00 0.00 0.00 0.00 0.00 0.00 0.00 0.00 0.00 0.00 0.00 0.00 0.00 0.00 0.00 0.00 0.00
0.00 0.00 0.00 0.00 0.00 0.00 0.00 0.00 0.00 0.00 0.00 0.00 0.00 0.00 0.00 0.00 0.00 0.00 0.00 0.00 0.00 0.00 0.00 0.00 0.00 0.00 0.00 0.00 0.00 0.00 0.00 0.00 0.00 0.00 0.00 0.00 0.00 0.00 0.00 0.00 0.00 0.00 0.00
0.00 0.00 0.00 0.00 0.00 0.00 0.00 0.00 0.00 0.00 0.00 0.00 0.00 0.00 0.00 0.00 0.00 0.00 0.00 0.00 0.00 0.00 0.00 0.00 0.00 0.00 0.00 0.00 0.00 0.00 0.00 0.00 0.00 0.00 0.00 0.00 0.00 0.00 0.00 0.00 0.00 0.00 0.00
0.00 0.00 0.00 0.00 0.00 0.00 0.00 0.00 0.00 0.00 0.00 0.00 0.00 0.00 0.00 0.00 0.00 0.00 0.00 0.00 0.00 0.00 0.00 0.00 0.00 0.00 0.00 0.00 0.00 0.00 0.01 0.01 0.00 0.00 0.01 0.00 0.00 0.00 0.00 0.00 0.00 0.00 0.00
0.00 0.00 0.00 0.00 0.00 0.00 0.00 0.00 0.00 0.00 0.00 0.00 0.00 0.00 0.00 0.00 0.00 0.00 0.00 0.00 0.00 0.00 0.00 0.00 0.01 0.01 0.01 0.03 0.05 0.05 0.05 0.02 0.01 0.00 0.00 0.00 0.00 0.00 0.00 0.00 0.00 0.00 0.00
0.00 0.00 0.00 0.00 0.00 0.00 0.00 0.00 0.00 0.00 0.00 0.00 0.00 0.00 0.00 0.00 0.00 0.00 0.00 0.00 0.00 0.00 0.00 0.00 0.02 0.04 0.03 0.05 0.08 0.06 0.04 0.04 0.01 0.00 0.00 0.00 0.00 0.00 0.00 0.00 0.00 0.00 0.00
0.00 0.00 0.00 0.00 0.00 0.00 0.00 0.00 0.00 0.00 0.00 0.00 0.00 0.00 0.00 0.00 0.00 0.00 0.00 0.00 0.00 0.00 0.00 0.00 0.02 0.04 0.08 0.11 0.10 0.09 0.07 0.04 0.01 0.00 0.00 0.00 0.00 0.00 0.00 0.00 0.00 0.00 0.00
0.00 0.00 0.00 0.00 0.00 0.00 0.00 0.00 0.00 0.00 0.00 0.00 0.00 0.00 0.00 0.00 0.00 0.00 0.00 0.00 0.00 0.00 0.00 0.01 0.06 0.13 0.12 0.13 0.15 0.14 0.10 0.06 0.02 0.01 0.00 0.00 0.00 0.00 0.00 0.00 0.00 0.00 0.00
0.00 0.00 0.00 0.00 0.00 0.00 0.00 0.00 0.00 0.00 0.00 0.00 0.00 0.00 0.00 0.00 0.00 0.00 0.00 0.02 0.04 0.01 0.01 0.04 0.08 0.13 0.20 0.21 0.18 0.10 0.06 0.03 0.00 0.00 0.01 0.01 0.01 0.01 0.01 0.00 0.00 0.00 0.00
0.00 0.00 0.00 0.00 0.00 0.00 0.01 0.00 0.00 0.00 0.00 0.00 0.00 0.00 0.00 0.00 0.00 0.00 0.00 0.01 0.04 0.06 0.09 0.15 0.21 0.23 0.21 0.11 0.07 0.05 0.03 0.01 0.00 0.01 0.02 0.02 0.02 0.01 0.00 0.00 0.00 0.00 0.00
0.00 0.00 0.00 0.00 0.00 0.00 0.00 0.02 0.03 0.01 0.04 0.07 0.12 0.06 0.01 0.00 0.02 0.02 0.04 0.04 0.07 0.10 0.20 0.26 0.21 0.15 0.09 0.04 0.01 0.01 0.00 0.01 0.01 0.02 0.03 0.03 0.03 0.01 0.00 0.00 0.00 0.00 0.00
0.00 0.00 0.00 0.00 0.00 0.00 0.00 0.00 0.02 0.01 0.03 0.09 0.14 0.11 0.06 0.05 0.07 0.11 0.10 0.23 0.36 0.48 0.62 0.49 0.23 0.04 0.02 0.01 0.00 0.00 0.01 0.02 0.03 0.04 0.04 0.04 0.02 0.00 0.00 0.00 0.00 0.00 0.00
0.00 0.00 0.00 0.00 0.00 0.00 0.00 0.00 0.01 0.00 0.01 0.01 0.03 0.05 0.06 0.08 0.06 0.05 0.05 0.03 0.05 0.20 0.20 0.10 0.04 0.03 0.03 0.01 0.01 0.01 0.02 0.03 0.03 0.03 0.03 0.01 0.00 0.00 0.00 0.00 0.00 0.00 0.00
0.00 0.00 0.00 0.00 0.00 0.00 0.00 0.00 0.00 0.00 0.00 0.00 0.00 0.01 0.03 0.04 0.04 0.03 0.01 0.05 0.07 0.02 0.02 0.02 0.04 0.04 0.03 0.03 0.02 0.01 0.02 0.01 0.01 0.01 0.00 0.00 0.00 0.00 0.00 0.00 0.00 0.00 0.00
0.00 0.00 0.00 0.00 0.00 0.00 0.00 0.00 0.00 0.00 0.00 0.00 0.00 0.01 0.02 0.04 0.02 0.01 0.01 0.04 0.07 0.10 0.07 0.06 0.05 0.04 0.03 0.03 0.02 0.00 0.00 0.00 0.00 0.00 0.00 0.00 0.01 0.01 0.00 0.00 0.00 0.00 0.00
0.00 0.00 0.00 0.00 0.00 0.00 0.00 0.00 0.00 0.00 0.00 0.00 0.00 0.01 0.02 0.03 0.04 0.02 0.02 0.03 0.05 0.06 0.07 0.07 0.06 0.05 0.04 0.04 0.01 0.00 0.00 0.00 0.00 0.00 0.00 0.00 0.01 0.00 0.00 0.00 0.00 0.00 0.00
0.00 0.00 0.00 0.00 0.00 0.00 0.00 0.00 0.00 0.00 0.00 0.00 0.01 0.01 0.02 0.03 0.02 0.03 0.02 0.04 0.06 0.02 0.03 0.04 0.03 0.02 0.01 0.02 0.01 0.00 0.00 0.00 0.00 0.00 0.00 0.00 0.00 0.00 0.00 0.00 0.00 0.00 0.00
0.00 0.00 0.00 0.00 0.00 0.00 0.00 0.00 0.00 0.00 0.00 0.00 0.00 0.01 0.01 0.02 0.03 0.03 0.04 0.03 0.01 0.00 0.01 0.00 0.00 0.00 0.01 0.01 0.01 0.01 0.00 0.00 0.00 0.00 0.00 0.00 0.00 0.00 0.00 0.00 0.00 0.00 0.00
0.00 0.00 0.00 0.00 0.00 0.00 0.00 0.00 0.00 0.00 0.00 0.00 0.00 0.01 0.02 0.02 0.02 0.01 0.00 0.00 0.00 0.00 0.00 0.00 0.00 0.00 0.00 0.01 0.00 0.00 0.00 0.00 0.00 0.00 0.00 0.00 0.00 0.00 0.00 0.00 0.00 0.00 0.00
0.00 0.00 0.00 0.00 0.00 0.00 0.00 0.00 0.00 0.00 0.00 0.01 0.01 0.01 0.01 0.01 0.00 0.00 0.00 0.00 0.00 0.00 0.00 0.00 0.00 0.00 0.00 0.00 0.00 0.00 0.00 0.00 0.00 0.00 0.00 0.00 0.00 0.00 0.00 0.00 0.00 0.00 0.00
0.00 0.00 0.00 0.00 0.00 0.00 0.00 0.00 0.00 0.00 0.00 0.01 0.00 0.00 0.00 0.00 0.00 0.00 0.00 0.00 0.00 0.00 0.00 0.00 0.00 0.00 0.00 0.00 0.00 0.00 0.00 0.00 0.00 0.00 0.00 0.00 0.00 0.00 0.00 0.00 0.00 0.00 0.00
0.00 0.00 0.00 0.00 0.00 0.00 0.00 0.00 0.00 0.00 0.00 0.00 0.00 0.00 0.00 0.00 0.00 0.00 0.00 0.00 0.00 0.00 0.00 0.00 0.00 0.00 0.00 0.00 0.00 0.00 0.00 0.00 0.00 0.00 0.00 0.00 0.00 0.00 0.00 0.00 0.00 0.00 0.00
0.00 0.00 0.00 0.00 0.00 0.00 0.00 0.00 0.00 0.00 0.00 0.00 0.00 0.00 0.00 0.00 0.00 0.00 0.00 0.00 0.00 0.00 0.00 0.00 0.00 0.00 0.00 0.00 0.00 0.00 0.00 0.00 0.00 0.00 0.00 0.00 0.00 0.00 0.00 0.00 0.00 0.00 0.00
0.00 0.00 0.00 0.00 0.00 0.00 0.00 0.00 0.00 0.00 0.00 0.00 0.00 0.00 0.00 0.00 0.00 0.00 0.00 0.00 0.00 0.00 0.00 0.00 0.00 0.00 0.00 0.00 0.00 0.00 0.00 0.00 0.00 0.00 0.00 0.00 0.00 0.00 0.00 0.00 0.00 0.00 0.00
0.00 0.00 0.00 0.00 0.00 0.00 0.00 0.00 0.00 0.00 0.00 0.00 0.00 0.00 0.00 0.00 0.00 0.00 0.00 0.00 0.00 0.00 0.00 0.00 0.00 0.00 0.00 0.00 0.00 0.00 0.00 0.00 0.00 0.00 0.00 0.00 0.00 0.00 0.00 0.00 0.00 0.00 0.00
0.00 0.00 0.00 0.00 0.00 0.00 0.00 0.00 0.00 0.00 0.00 0.00 0.00 0.00 0.00 0.00 0.00 0.00 0.00 0.00 0.00 0.00 0.00 0.00 0.00 0.00 0.00 0.00 0.00 0.00 0.00 0.00 0.00 0.00 0.00 0.00 0.00 0.00 0.00 0.00 0.00 0.00 0.00
MSLP
1011.79 1012.51 1012.88 1013.55 1013.99 1014.28 1014.80 1015.09 1015.31 1015.82 1016.17 1016.57 1016.65 1017.12 1017.44 1017.73 1018.01 1018.12 1018.37 1018.60 1018.53 1018.55 1019.33 1019.67 1019.76 1020.24 1020.87 1021.06 1021.56 1022.17 1022.92 1023.45 1023.94 1024.70 1025.12 1025.10 1025.07 1025.17 1025.23 1025.24 1025.38 1025.34 1025.21
1011.45 1012.02 1012.77 1013.41 1013.76 1013.99 1014.40 1014.77 1015.24 1015.59 1015.95 1016.21 1016.39 1016.95 1017.49 1017.55 1017.75 1017.80 1017.64 1018.23 1018.37 1018.14 1018.96 1019.30 1019.77 1020.12 1020.80 1021.19 1021.62 1021.92 1022.81 1023.54 1023.77 1024.44 1025.01 1025.32 1025.20 1025.01 1024.85 1024.89 1024.94 1025.01 1025.10
1010.82 1011.50 1012.17 1012.89 1013.46 1013.70 1014.21 1014.60 1014.95 1015.27 1015.74 1016.22 1016.89 1017.29 1017.76 1017.79 1017.90 1017.76 1018.01 1018.36 1018.14 1018.29 1018.66 1019.10 1019.56 1019.92 1020.26 1020.84 1021.06 1021.43 1022.10 1022.96 1023.44 1023.34 1023.77 1024.94 1024.63 1024.58 1024.33 1024.51 1024.45 1024.68 1024.92
1010.02 1010.78 1011.53 1012.50 1012.74 1013.21 1013.87 1014.25 1014.58 1015.01 1015.56 1016.24 1016.62 1017.05 1017.40 1017.45 1017.76 1017.80 1017.79 1017.74 1017.80 1018.05 1018.51 1018.92 1019.39 1019.24 1020.15 1020.32 1020.53 1020.91 1021.53 1021.90 1022.56 1023.20 1023.03 1022.99 1023.16 1024.07 1024.43 1024.26 1024.04 1024.17 1024.29
1008.60 1009.49 1010.23 1011.02 1011.87 1012.65 1013.18 1013.78 1014.19 1014.50 1015.08 1015.86 1016.18 1016.57 1017.19 1017.02 1017.12 1017.46 1017.63 1017.72 1017.76 1017.84 1018.16 1018.66 1018.54 1019.03 1019.61 1019.68 1020.13 1020.76 1021.28 1021.42 1021.82 1021.98 1022.74 1022.98 1023.10 1023.50 1023.92 1024.31 1024.13 1024.19 1023.86
1007.65 1008.44 1009.46 1010.81 1011.48 1012.21 1012.67 1013.21 1013.75 1014.24 1014.68 1015.03 1015.38 1015.80 1016.15 1016.47 1016.95 1017.23 1017.39 1017.32 1017.29 1017.56 1017.59 1017.76 1017.99 1018.62 1018.83 1019.19 1019.49 1019.88 1020.40 1020.86 1021.12 1021.25 1021.44 1021.73 1022.41 1022.96 1023.27 1023.94 1023.89 1023.83 1023.56
1006.91 1007.82 1008.71 1009.68 1010.63 1011.46 1012.03 1012.48 1012.92 1013.30 1013.83 1014.31 1014.50 1014.84 1015.26 1015.72 1016.07 1016.27 1016.38 1016.79 1016.94 1017.07 1016.96 1017.24 1017.89 1018.02 1018.04 1018.73 1019.16 1019.52 1019.96 1020.07 1020.46 1020.51 1020.71 1020.85 1021.26 1021.88 1022.53 1023.04 1023.60 1023.90 1023.84
1005.86 1006.83 1007.46 1008.22 1009.25 1010.13 1010.98 1011.49 1011.93 1012.33 1012.75 1013.28 1013.80 1014.19 1014.43 1014.91 1015.39 1015.47 1015.98 1016.05 1016.23 1016.16 1016.48 1016.82 1016.92 1016.89 1017.36 1018.29 1018.73 1019.19 1019.60 1019.67 1020.03 1020.31 1020.28 1020.62 1021.08 1021.58 1022.08 1022.49 1023.28 1023.87 1023.88
1004.81 1005.56 1006.57 1007.33 1008.17 1008.89 1009.53 1010.19 1010.64 1011.13 1011.66 1011.92 1012.34 1012.94 1013.63 1014.04 1014.18 1014.97 1015.34 1015.66 1015.73 1015.85 1016.05 1016.20 1016.60 1016.63 1016.63 1017.16 1018.06 1018.39 1018.24 1019.10 1019.47 1019.82 1020.10 1020.37 1020.93 1021.45 1021.71 1022.39 1022.52 1023.19 1023.74
1003.76 1004.34 1005.49 1006.30 1006.93 1007.46 1008.09 1009.27 1009.70 1009.82 1010.11 1011.19 1011.83 1012.19 1012.74 1013.26 1013.75 1014.38 1014.76 1015.13 1015.43 1015.60 1015.81 1015.96 1016.30 1016.55 1016.19 1017.17 1017.75 1018.00 1018.18 1018.57 1019.12 1019.32 1019.86 1020.19 1020.60 1021.09 1021.82 1021.72 1022.75 1022.94 1023.48
1002.81 1003.30 1003.69 1004.74 1005.46 1006.24 1007.30 1007.99 1008.94 1009.09 1009.71 1010.03 1010.57 1011.47 1011.97 1012.79 1013.65 1014.02 1014.02 1014.14 1014.50 1014.79 1015.10 1015.28 1015.56 1015.59 1016.22 1016.95 1017.47 1017.87 1018.26 1018.45 1018.76 1019.14 1019.63 1020.29 1020.64 1020.97 1021.85 1021.93 1022.62 1022.90 1023.28
1001.88 1002.44 1002.95 1003.40 1004.54 1005.17 1006.00 1006.70 1007.19 1007.88 1008.23 1008.97 1009.70 1010.14 1011.01 1011.58 1012.09 1012.21 1012.05 1012.66 1012.82 1013.15 1013.87 1014.72 1013.91 1014.16 1015.86 1016.64 1016.99 1017.34 1017.63 1018.22 1018.41 1018.94 1019.42 1020.02 1020.52 1020.91 1021.50 1021.94 1022.39 1022.60 1022.87
1001.27 1001.62 1002.32 1002.88 1003.21 1003.89 1004.80 1005.49 1006.02 1006.26 1006.91 1008.03 1008.46 1009.18 1009.65 1010.26 1009.95 1009.91 1010.39 1010.95 1011.84 1012.57 1013.12 1013.26 1013.49 1014.20 1015.17 1015.99 1016.37 1016.93 1017.20 1017.72 1018.24 1018.75 1019.14 1019.83 1020.34 1020.89 1021.45 1021.96 1022.24 1022.39 1022.60
1000.86 1001.03 1001.54 1001.94 1002.19 1002.77 1003.27 1003.97 1004.41 1004.71 1005.65 1006.53 1007.15 1007.73 1008.13 1008.42 1008.86 1009.25 1010.05 1010.43 1010.92 1011.52 1011.87 1012.54 1013.08 1014.14 1014.94 1015.46 1016.15 1016.56 1017.06 1017.63 1018.19 1018.65 1019.18 1019.66 1020.18 1020.62 1021.19 1021.76 1022.19 1022.41 1022.72
1000.43 1000.72 1001.02 1001.10 1001.60 1002.20 1002.56 1002.95 1003.12 1003.74 1004.60 1005.42 1006.01 1006.25 1006.98 1007.57 1008.22 1008.85 1009.34 1010.10 1010.53 1011.03 1011.48 1012.12 1012.78 1013.70 1014.42 1015.16 1015.86 1016.21 1016.72 1017.56 1018.32 1018.73 1019.15 1019.65 1020.29 1020.86 1021.34 1021.69 1022.18 1022.50 1022.92
999.77 999.92 1000.38 1000.86 1000.92 1001.39 1001.65 1002.07 1002.63 1002.98 1003.61 1004.24 1004.88 1005.83 1006.66 1007.46 1007.82 1008.55 1009.24 1009.81 1010.52 1011.06 1011.60 1012.34 1013.10 1013.92 1014.31 1014.90 1015.70 1016.19 1017.03 1017.80 1018.38 1018.86 1019.36 1019.99 1020.75 1021.36 1021.80 1022.03 1022.51 1022.61 1023.09
999.20 999.35 999.85 1000.17 1000.31 1000.62 1000.85 1001.51 1002.25 1002.51 1003.26 1004.01 1004.72 1005.50 1006.30 1006.95 1007.65 1008.52 1009.24 1009.86 1010.55 1011.23 1011.81 1012.55 1013.12 1013.63 1014.39 1015.24 1015.80 1016.31 1016.98 1017.61 1018.10 1018.65 1019.37 1020.11 1020.91 1021.46 1021.87 1022.31 1022.49 1022.68 1022.99
998.62 998.75 998.61 999.44 999.92 1000.48 1001.37 1001.85 1002.55 1002.79 1003.36 1004.31 1004.89 1005.53 1006.35 1007.11 1007.87 1008.56 1009.27 1009.93 1010.65 1011.06 1011.80 1012.49 1013.09 1013.79 1014.68 1015.26 1015.80 1016.40 1016.95 1017.64 1018.36 1018.99 1019.63 1020.36 1021.00 1021.34 1021.66 1021.85 1022.35 1022.65 1022.70
997.16 997.37 997.64 998.41 999.44 1000.21 1001.22 1002.06 1002.78 1003.14 1003.75 1004.70 1005.23 1005.88 1006.54 1007.44 1008.14 1008.62 1009.22 1009.98 1010.56 1011.44 1012.15 1012.93 1013.66 1014.34 1015.12 1015.53 1016.07 1016.72 1017.63 1018.51 1019.32 1019.79 1020.20 1020.70 1021.27 1021.59 1021.79 1022.26 1022.48 1022.71 1022.79
996.96 997.35 997.97 998.70 999.44 1000.28 1001.05 1002.13 1003.00 1003.30 1004.24 1005.15 1005.72 1006.25 1006.99 1007.67 1008.58 1009.38 1010.11 1010.80 1011.53 1012.43 1013.02 1014.14 1014.81 1015.39 1016.03 1016.44 1016.88 1017.42 1018.26 1019.20 1019.96 1020.69 1021.16 1021.72 1021.61 1021.94 1022.19 1022.47 1022.64 1022.74 1022.76
997.13 997.55 998.25 998.85 999.64 1000.32 1001.09 1002.32 1003.01 1004.00 1004.85 1005.63 1006.19 1006.87 1007.48 1008.22 1009.04 1009.98 1010.88 1011.78 1012.76 1013.64 1014.63 1015.51 1016.23 1016.55 1016.96 1017.58 1017.86 1018.24 1018.63 1019.49 1020.47 1021.22 1021.79 1022.20 1022.48 1022.50 1022.38 1022.28 1022.50 1022.64 1022.91
997.39 997.89 998.70 999.42 1000.27 1000.85 1001.51 1002.78 1003.82 1004.67 1005.52 1006.29 1007.04 1007.74 1008.40 1009.18 1010.02 1010.84 1011.92 1012.62 1013.49 1014.59 1015.64 1016.41 1017.41 1018.15 1018.53 1018.74 1018.89 1019.26 1019.82 1020.30 1020.85 1021.58 1022.15 1022.32 1022.40 1022.39 1022.41 1022.59 1022.63 1022.69 1022.94
997.61 998.22 998.84 1000.13 1000.88 1001.49 1002.04 1003.16 1004.50 1005.08 1005.85 1006.92 1008.26 1008.92 1009.49 1010.26 1010.99 1011.74 1012.72 1013.65 1014.42 1015.24 1016.34 1017.16 1018.07 1018.96 1019.45 1019.72 1019.99 1020.07 1020.41 1020.88 1021.40 1021.85 1022.14 1022.27 1022.32 1022.32 1022.48 1022.57 1022.71 1022.91 1023.01
998.94 999.42 1000.02 1001.00 1001.99 1002.43 1003.18 1004.28 1005.21 1006.02 1006.90 1007.93 1009.34 1010.42 1010.93 1011.72 1012.56 1013.28 1013.87 1014.54 1015.32 1016.05 1016.78 1017.56 1018.36 1019.26 1019.91 1020.33 1020.59 1020.87 1021.18 1021.39 1021.62 1021.93 1022.15 1022.33 1022.46 1022.67 1022.84 1022.91 1022.90 1022.95 1023.02
1000.74 1000.94 1001.51 1002.20 1003.32 1003.70 1004.33 1005.19 1005.91 1006.84 1008.32 1009.33 1010.32 1011.46 1012.19 1012.90 1013.79 1014.65 1015.31 1015.69 1016.16 1016.27 1016.88 1017.78 1018.54 1019.36 1020.23 1020.80 1020.97 1021.20 1021.44 1021.71 1021.92 1022.22 1022.53 1022.80 1022.93 1023.02 1023.04 1023.07 1023.07 1023.06 1023.10
1002.08 1002.67 1003.44 1003.78 1004.63 1005.22 1005.93 1006.52 1007.01 1007.76 1008.87 1010.28 1011.41 1012.40 1013.13 1013.96 1014.63 1015.27 1016.27 1016.87 1017.14 1017.41 1017.85 1018.43 1018.91 1019.86 1020.40 1020.86 1021.16 1021.36 1021.52 1021.73 1021.91 1022.36 1022.88 1023.25 1023.38 1023.43 1023.40 1023.40 1023.33 1023.35 1023.38
Thickness
5636 5626 5626 5619 5615 5610 5603 5602 5600 5596 5595 5593 5593 5591 5590 5591 5590 5592 5591 5587 5591 5595 5592 5592 5592 5592 5590 5591 5591 5588 5582 5580 5577 5572 5568 5568 5569 5568 5565 5563 5560 5558 5556
5637 5632 5624 5621 5617 5616 5610 5606 5604 5601 5597 5598 5597 5593 5588 5590 5591 5591 5593 5589 5593 5598 5595 5593 5592 5590 5588 5586 5586 5585 5578 5575 5575 5570 5563 5562 5562 5561 5562 5560 5558 5555 5551
5642 5637 5631 5624 5618 5617 5613 5610 5607 5607 5602 5597 5590 5588 5586 5589 5588 5591 5592 5590 5595 5596 5594 5592 5589 5589 5590 5587 5588 5585 5582 5575 5571 5573 5569 5552 5557 5558 5560 5557 5555 5551 5547
5650 5644 5637 5627 5624 5620 5616 5614 5612 5610 5606 5597 5594 5591 5591 5593 5590 5591 5594 5595 5595 5593 5589 5588 5586 5593 5585 5588 5588 5585 5580 5578 5573 5567 5568 5567 5563 5555 5554 5551 5551 5547 5544
5661 5653 5648 5640 5633 5627 5623 5618 5615 5615 5609 5601 5600 5598 5592 5597 5596 5593 5593 5594 5594 5592 5590 5587 5591 5592 5587 5589 5586 5581 5577 5575 5571 5569 5562 5559 5556 5551 5547 5543 5543 5538 5538
5665 5661 5654 5642 5636 5631 5628 5622 5618 5615 5611 5608 5606 5604 5604 5601 5596 5593 5593 5594 5595 5591 5595 5595 5595 5588 5590 5588 5585 5582 5577 5573 5570 5569 5567 5562 5556 5548 5544 5536 5532 5534 5532
5666 5660 5655 5649 5641 5634 5631 5628 5625 5622 5618 5614 5614 5612 5607 5603 5600 5599 5599 5595 5595 5595 5597 5597 5590 5591 5590 5583 5580 5578 5574 5574 5570 5569 5567 5563 5558 5550 5543 5538 5528 5525 5521
5671 5664 5661 5657 5649 5643 5636 5633 5629 5626 5623 5619 5615 5612 5611 5606 5600 5602 5596 5598 5596 5598 5597 5592 5593 5593 5589 5581 5576 5572 5568 5568 5565 5562 5561 5556 5550 5544 5537 5532 5523 5515 5509
5676 5670 5663 5659 5653 5648 5644 5638 5635 5631 5628 5627 5624 5618 5613 5610 5609 5600 5598 5593 5595 5595 5593 5591 5588 5586 5585 5582 5575 5574 5574 5566 5561 5557 5554 5550 5543 5535 5531 5522 5518 5508 5501
5682 5678 5668 5662 5659 5655 5651 5642 5639 5638 5636 5627 5623 5620 5614 5609 5604 5598 5595 5592 5589 5588 5587 5586 5583 5579 5576 5575 5570 5567 5565 5563 5556 5553 5547 5543 5536 5529 5520 5517 5504 5498 5489
5686 5683 5681 5671 5666 5661 5653 5647 5640 5639 5634 5631 5626 5617 5612 5605 5597 5594 5593 5591 5589 5587 5585 5583 5580 5580 5572 5566 5563 5560 5555 5555 5551 5547 5541 5531 5525 5519 5508 5504 5493 5485 5477
5686 5685 5682 5679 5669 5664 5659 5653 5649 5643 5640 5634 5627 5622 5612 5605 5602 5602 5601 5597 5594 5593 5583 5575 5577 5585 5569 5563 5558 5557 5556 5549 5545 5538 5531 5522 5515 5509 5500 5491 5482 5476 5467
5682 5683 5680 5676 5675 5671 5663 5658 5653 5651 5645 5635 5630 5623 5619 5612 5613 5612 5607 5604 5595 5589 5583 5582 5579 5573 5565 5562 5559 5553 5548 5541 5535 5528 5522 5513 5506 5497 5488 5478 5472 5464 5456
5678 5678 5678 5678 5679 5674 5671 5665 5660 5657 5650 5642 5635 5629 5625 5622 5618 5614 5606 5602 5595 5591 5588 5582 5576 5569 5562 5558 5548 5543 5538 5533 5525 5518 5511 5503 5495 5487 5478 5467 5457 5449 5441
5672 5674 5673 5675 5676 5672 5670 5667 5665 5660 5652 5643 5638 5635 5629 5622 5616 5609 5604 5595 5593 5589 5585 5577 5571 5564 5556 5547 5540 5537 5531 5522 5513 5506 5498 5490 5482 5472 5462 5453 5443 5434 5425
5670 5675 5672 5671 5674 5673 5672 5667 5662 5658 5653 5646 5639 5631 5622 5614 5610 5603 5596 5591 5584 5579 5573 5566 5556 5549 5546 5540 5531 5526 5517 5507 5499 5492 5484 5474 5463 5453 5443 5436 5426 5419 5407
5669 5671 5667 5672 5674 5674 5671 5664 5656 5654 5647 5641 5634 5627 5619 5613 5605 5596 5589 5583 5577 5569 5564 5556 5550 5545 5537 5526 5519 5512 5505 5497 5490 5482 5472 5462 5450 5439 5430 5420 5411 5402 5391
5667 5668 5675 5670 5669 5664 5657 5652 5647 5645 5639 5631 5625 5618 5609 5601 5593 5588 5581 5574 5567 5563 5555 5547 5541 5533 5523 5515 5509 5501 5494 5486 5477 5468 5458 5446 5434 5425 5415 5407 5395 5386 5378
5678 5678 5679 5672 5663 5658 5650 5643 5638 5635 5630 5619 5612 5605 5597 5589 5582 5577 5571 5562 5557 5548 5540 5532 5525 5517 5508 5501 5495 5487 5476 5466 5456 5447 5438 5428 5417 5407 5398 5388 5379 5369 5360
5672 5671 5666 5660 5656 5649 5644 5634 5627 5625 5616 5606 5599 5594 5586 5579 5569 5560 5553 5545 5537 5528 5522 5510 5502 5495 5488 5482 5475 5468 5457 5446 5435 5424 5414 5403 5397 5388 5379 5370 5362 5354 5345
5661 5658 5655 5654 5647 5639 5634 5623 5618 5609 5598 5590 5585 5579 5572 5563 5553 5544 5535 5526 5516 5506 5496 5486 5479 5475 5468 5460 5454 5448 5441 5429 5416 5404 5392 5382 5373 5366 5360 5354 5345 5337 5325
5649 5647 5641 5635 5628 5624 5620 5608 5599 5591 5582 5575 5567 5560 5552 5544 5535 5526 5516 5508 5498 5487 5476 5467 5456 5448 5442 5437 5432 5425 5415 5407 5397 5385 5373 5364 5357 5349 5341 5332 5324 5315 5305
5639 5638 5631 5618 5613 5609 5605 5593 5582 5577 5570 5559 5546 5539 5533 5524 5516 5508 5498 5487 5480 5471 5459 5450 5439 5429 5421 5415 5408 5403 5395 5385 5375 5365 5355 5347 5340 5332 5322 5313 5303 5294 5285
5617 5615 5611 5602 5593 5590 5584 5574 5566 5558 5550 5540 5525 5513 5508 5499 5490 5482 5476 5468 5460 5452 5443 5434 5424 5412 5403 5395 5388 5380 5371 5364 5355 5345 5336 5327 5319 5310 5300 5291 5282 5273 5264
5592 5591 5587 5581 5570 5569 5563 5555 5548 5540 5524 5513 5503 5491 5483 5476 5467 5457 5450 5444 5438 5434 5427 5415 5406 5395 5384 5375 5367 5359 5351 5341 5333 5323 5314 5305 5296 5286 5278 5269 5260 5251 5242
5571 5566 5560 5557 5550 5544 5537 5532 5527 5519 5507 5493 5482 5472 5464 5455 5447 5440 5429 5421 5415 5410 5403 5395 5387 5375 5366 5356 5346 5338 5331 5322 5313 5302 5290 5278 5267 5261 5254 5245 5237 5228 5218